User: anonymous   Login
Location: Unspecified
(0.0000°N, 0.0000°E)
Time: 14:09:55
(UTC+02:00)
Language:

Cosmos 1536 - Orbit

View from above orbital plane
View from above orbital plane
View from above satellite
View from above satellite

Ground track
Ground track

The orbit data is extracted from the following two-line orbital elements,

1 14699U 84013A   17116.79682576 +.00001010 +00000-0 +69066-4 0  9994
2 14699 082.5280 019.2845 0011331 226.5645 133.4639 15.05031468784207
Epoch (UTC): 26 April 2017 19:07:25
Eccentricity: 0.0011331
inclination: 82.5280°
perigee height: 543 km
apogee height: 559 km
right ascension of ascending node: 19.2845°
argument of perigee: 226.5645°
revolutions per day: 15.05031468
mean anomaly at epoch: 133.4639°
orbit number at epoch: 78420

The dashed part of the orbit path shows where the satellite is in the earth's shadow,  

DLR